Location: Newark
(42.4856°N, 18.6928°E)
Time: 10:16:20
(UTC+00:00)

Envisat - Visible Passes

Search period start: 12 November 2019 00:00
Search period end: 22 November 2019 00:00
Orbit: 764 x 766 km, 98.1° (Epoch: 12 November)

Date Brightness Start Highest point End Pass type
(mag) Time Alt. Az. Time Alt. Az. Time Alt. Az.
12 Nov 2.9 16:36:32 10° SSE 16:41:36 76° ENE 16:46:42 10° N visible
12 Nov 6.1 18:19:00 10° WSW 18:21:11 13° W 18:23:24 10° WNW visible
13 Nov 5.6 04:45:24 10° NE 04:49:34 25° E 04:53:43 10° SSE visible
13 Nov 3.6 16:00:25 10° SE 16:05:00 35° ENE 16:09:36 10° N visible
13 Nov 5.0 17:39:42 10° SSW 17:44:02 28° W 17:48:24 10° NW visible
14 Nov 6.4 04:10:59 10° ENE 04:12:24 11° E 04:13:47 10° ESE visible
14 Nov 3.5 17:02:05 10° S 17:07:06 62° W 17:12:09 10° NNW visible
15 Nov 3.0 16:25:22 10° SSE 16:30:21 61° ENE 16:35:22 10° N visible
15 Nov 5.8 18:06:39 10° SW 18:09:47 16° W 18:12:56 10° NW visible
16 Nov 5.9 04:34:30 10° NE 04:38:12 20° E 04:41:52 10° SE visible
16 Nov 3.8 15:49:31 10° SE 15:53:49 29° ENE 15:58:08 10° N visible
16 Nov 4.6 17:28:04 10° SSW 17:32:42 35° W 17:37:21 10° NNW visible
17 Nov 3.1 16:50:45 10° S 16:55:49 79° WSW 17:00:56 10° NNW visible
18 Nov 5.0 04:59:16 10° NNE 05:03:54 34° E 05:08:29 10° SSE visible
18 Nov 3.2 16:14:17 10° SE 16:19:08 48° ENE 16:24:01 10° N visible
18 Nov 5.5 17:54:39 10° SW 17:58:24 21° W 18:02:10 10° NW visible
19 Nov 6.0 04:23:45 10° NE 04:26:48 16° E 04:29:50 10° SE visible
19 Nov 4.1 17:16:32 10° S 17:21:22 45° W 17:26:15 10° NNW visible
20 Nov 2.9 16:39:28 10° SSE 16:44:32 83° ENE 16:49:39 10° NNW visible
20 Nov 6.2 18:22:34 10° WSW 18:24:11 11° W 18:25:50 10° WNW visible
21 Nov 5.4 04:48:14 10° NE 04:52:33 27° E 04:56:50 10° SSE visible
21 Nov 3.4 16:03:16 10° SE 16:07:55 38° ENE 16:12:36 10° N visible
21 Nov 5.1 17:42:50 10° SSW 17:47:01 26° W 17:51:15 10° NW visible
